Time,TemperatureF,DewpointF,PressureIn,WindDirection,WindDirectionDegrees,WindSpeedMPH,WindSpeedGustMPH,Humidity,HourlyPrecipIn,Conditions,Clouds,dailyrainin,SoftwareType,DateUTC
2013-01-24 00:03:00,24.0,3.0,-100.00,NW,315,2.0,4.0,41,-99.99,,,-99.99,,2013-01-24 05:03:00,
2013-01-24 00:12:00,23.0,4.0,-100.00,NNW,340,3.0,8.0,43,-99.99,,,-99.99,,2013-01-24 05:12:00,
2013-01-24 00:22:00,23.0,4.0,-100.00,North,350,2.0,6.0,44,-99.99,,,-99.99,,2013-01-24 05:22:00,
2013-01-24 00:33:00,23.0,4.0,-100.00,North,350,2.0,6.0,44,-99.99,,,-99.99,,2013-01-24 05:33:00,
2013-01-24 00:43:00,23.0,5.0,-100.00,NNE,20,3.0,7.0,46,-99.99,,,-99.99,,2013-01-24 05:43:00,
2013-01-24 00:52:00,23.0,5.0,-100.00,NNE,20,3.0,7.0,46,-99.99,,,-99.99,,2013-01-24 05:52:00,
2013-01-24 01:03:00,23.0,6.0,-100.00,North,0,3.0,6.0,48,-99.99,,,-99.99,,2013-01-24 06:03:00,
2013-01-24 01:12:00,22.0,7.0,-100.00,North,0,2.0,9.0,51,-99.99,,,-99.99,,2013-01-24 06:12:00,
2013-01-24 01:22:00,22.0,8.0,-100.00,North,0,4.0,9.0,55,-99.99,,,-99.99,,2013-01-24 06:22:00,
2013-01-24 01:32:00,22.0,8.0,-100.00,North,0,4.0,9.0,55,-99.99,,,-99.99,,2013-01-24 06:32:00,
2013-01-24 01:42:00,20.0,10.0,-100.00,North,10,6.0,12.0,64,-99.99,,,-99.99,,2013-01-24 06:42:00,
2013-01-24 01:52:00,20.0,12.0,-100.00,NE,35,4.0,9.0,70,-99.99,,,-99.99,,2013-01-24 06:52:00,
2013-01-24 02:03:00,20.0,12.0,-100.00,NE,35,4.0,9.0,70,-99.99,,,-99.99,,2013-01-24 07:03:00,
2013-01-24 02:12:00,20.0,13.0,-100.00,North,5,4.0,9.0,75,-99.99,,,-99.99,,2013-01-24 07:12:00,
2013-01-24 02:23:00,20.0,13.0,-100.00,North,5,4.0,9.0,75,-99.99,,,-99.99,,2013-01-24 07:23:00,
2013-01-24 02:33:00,19.0,13.0,-100.00,NNE,15,2.0,7.0,77,-99.99,,,-99.99,,2013-01-24 07:33:00,
2013-01-24 02:42:00,19.0,14.0,-100.00,North,0,4.0,7.0,81,-99.99,,,-99.99,,2013-01-24 07:42:00,
2013-01-24 02:52:00,19.0,15.0,-100.00,North,10,4.0,9.0,84,-99.99,,,-99.99,,2013-01-24 07:52:00,
2013-01-24 03:02:00,19.0,15.0,-100.00,North,10,4.0,9.0,84,-99.99,,,-99.99,,2013-01-24 08:02:00,
2013-01-24 03:13:00,19.0,15.0,-100.00,North,0,3.0,9.0,86,-99.99,,,-99.99,,2013-01-24 08:13:00,
2013-01-24 03:23:00,19.0,15.0,-100.00,North,0,3.0,9.0,86,-99.99,,,-99.99,,2013-01-24 08:23:00,
2013-01-24 03:33:00,18.0,15.0,-100.00,North,5,5.0,11.0,87,-99.99,,,-99.99,,2013-01-24 08:33:00,
2013-01-24 03:43:00,18.0,15.0,-100.00,North,5,4.0,8.0,88,-99.99,,,-99.99,,2013-01-24 08:43:00,
2013-01-24 03:52:00,18.0,15.0,-100.00,North,5,3.0,7.0,89,-99.99,,,-99.99,,2013-01-24 08:52:00,
2013-01-24 04:03:00,18.0,15.0,-100.00,North,5,3.0,7.0,89,-99.99,,,-99.99,,2013-01-24 09:03:00,
2013-01-24 04:13:00,18.0,15.0,-100.00,North,10,3.0,7.0,89,-99.99,,,-99.99,,2013-01-24 09:13:00,
2013-01-24 04:23:00,18.0,16.0,-100.00,SW,220,2.0,10.0,90,-99.99,,,-99.99,,2013-01-24 09:23:00,
2013-01-24 04:33:00,18.0,16.0,-100.00,SW,220,2.0,10.0,90,-99.99,,,-99.99,,2013-01-24 09:33:00,
2013-01-24 04:43:00,18.0,16.0,-100.00,North,5,6.0,8.0,90,-99.99,,,-99.99,,2013-01-24 09:43:00,
2013-01-24 04:52:00,18.0,16.0,-100.00,North,0,4.0,9.0,90,-99.99,,,-99.99,,2013-01-24 09:52:00,
2013-01-24 05:03:00,18.0,16.0,-100.00,North,0,4.0,9.0,90,-99.99,,,-99.99,,2013-01-24 10:03:00,
2013-01-24 05:12:00,18.0,16.0,-100.00,NNW,340,4.0,8.0,91,-99.99,,,-99.99,,2013-01-24 10:12:00,
2013-01-24 05:23:00,18.0,16.0,-100.00,NNW,340,4.0,8.0,91,-99.99,,,-99.99,,2013-01-24 10:23:00,
2013-01-24 05:33:00,18.0,16.0,-100.00,North,0,2.0,7.0,91,-99.99,,,-99.99,,2013-01-24 10:33:00,
2013-01-24 05:43:00,18.0,16.0,-100.00,NW,315,6.0,11.0,92,-99.99,,,-99.99,,2013-01-24 10:43:00,
2013-01-24 05:52:00,18.0,16.0,-100.00,North,0,3.0,12.0,92,-99.99,,,-99.99,,2013-01-24 10:52:00,
2013-01-24 06:03:00,18.0,16.0,-100.00,North,0,3.0,12.0,92,-99.99,,,-99.99,,2013-01-24 11:03:00,
2013-01-24 06:12:00,17.0,15.0,-100.00,NNW,335,6.0,12.0,92,-99.99,,,-99.99,,2013-01-24 11:12:00,
2013-01-24 06:23:00,17.0,15.0,-100.00,NW,320,6.0,16.0,92,-99.99,,,-99.99,,2013-01-24 11:23:00,
2013-01-24 06:33:00,17.0,15.0,-100.00,NW,320,6.0,16.0,92,-99.99,,,-99.99,,2013-01-24 11:33:00,
2013-01-24 06:43:00,17.0,15.0,-100.00,NW,325,6.0,10.0,92,-99.99,,,-99.99,,2013-01-24 11:43:00,
2013-01-24 06:53:00,17.0,15.0,-100.00,NW,325,6.0,10.0,92,-99.99,,,-99.99,,2013-01-24 11:53:00,
2013-01-24 07:03:00,17.0,15.0,-100.00,NNW,330,5.0,9.0,92,-99.99,,,-99.99,,2013-01-24 12:03:00,
2013-01-24 07:12:00,17.0,15.0,-100.00,NW,325,3.0,7.0,92,-99.99,,,-99.99,,2013-01-24 12:12:00,
2013-01-24 07:23:00,16.0,14.0,-100.00,NNW,335,4.0,11.0,93,-99.99,,,-99.99,,2013-01-24 12:23:00,
2013-01-24 07:33:00,16.0,14.0,-100.00,NNW,335,4.0,11.0,93,-99.99,,,-99.99,,2013-01-24 12:33:00,
2013-01-24 07:43:00,16.0,14.0,-100.00,NNW,330,4.0,11.0,92,-99.99,,,-99.99,,2013-01-24 12:43:00,
2013-01-24 07:53:00,16.0,14.0,-100.00,NW,310,4.0,9.0,91,-99.99,,,-99.99,,2013-01-24 12:53:00,
2013-01-24 08:03:00,16.0,14.0,-100.00,NW,310,4.0,9.0,91,-99.99,,,-99.99,,2013-01-24 13:03:00,
2013-01-24 08:13:00,16.0,14.0,-100.00,WNW,285,2.0,6.0,90,-99.99,,,-99.99,,2013-01-24 13:13:00,
2013-01-24 08:23:00,16.0,14.0,-100.00,WNW,285,2.0,6.0,90,-99.99,,,-99.99,,2013-01-24 13:23:00,
2013-01-24 08:33:00,17.0,14.0,-100.00,West,275,2.0,5.0,90,-99.99,,,-99.99,,2013-01-24 13:33:00,
2013-01-24 08:43:00,17.0,14.0,-100.00,WNW,285,4.0,7.0,89,-99.99,,,-99.99,,2013-01-24 13:43:00,
2013-01-24 08:53:00,17.0,14.0,-100.00,WNW,285,4.0,9.0,87,-99.99,,,-99.99,,2013-01-24 13:53:00,
2013-01-24 09:03:00,17.0,14.0,-100.00,WNW,285,4.0,9.0,87,-99.99,,,-99.99,,2013-01-24 14:03:00,
2013-01-24 09:12:00,18.0,14.0,-100.00,NW,305,6.0,11.0,85,-99.99,,,-99.99,,2013-01-24 14:12:00,
2013-01-24 09:23:00,18.0,14.0,-100.00,NW,305,6.0,11.0,85,-99.99,,,-99.99,,2013-01-24 14:23:00,
2013-01-24 09:33:00,18.0,14.0,-100.00,West,275,2.0,10.0,83,-99.99,,,-99.99,,2013-01-24 14:33:00,
2013-01-24 09:43:00,20.0,14.0,-100.00,WNW,290,4.0,10.0,78,-99.99,,,-99.99,,2013-01-24 14:43:00,
2013-01-24 09:53:00,20.0,14.0,-100.00,WNW,285,4.0,10.0,76,-99.99,,,-99.99,,2013-01-24 14:53:00,
2013-01-24 10:04:00,20.0,14.0,-100.00,WNW,285,4.0,10.0,76,-99.99,,,-99.99,,2013-01-24 15:04:00,
2013-01-24 10:13:00,22.0,14.0,-100.00,WNW,285,5.0,12.0,72,-99.99,,,-99.99,,2013-01-24 15:13:00,
2013-01-24 10:23:00,22.0,14.0,-100.00,WNW,285,5.0,12.0,72,-99.99,,,-99.99,,2013-01-24 15:23:00,
2013-01-24 10:33:00,22.0,13.0,-100.00,WSW,255,4.0,14.0,69,-99.99,,,-99.99,,2013-01-24 15:33:00,
2013-01-24 10:43:00,23.0,13.0,-100.00,West,270,5.0,12.0,65,-99.99,,,-99.99,,2013-01-24 15:43:00,
2013-01-24 10:53:00,23.0,12.0,-100.00,West,275,6.0,15.0,63,-99.99,,,-99.99,,2013-01-24 15:53:00,
2013-01-24 11:04:00,23.0,12.0,-100.00,West,275,6.0,15.0,63,-99.99,,,-99.99,,2013-01-24 16:04:00,
2013-01-24 11:11:00,25.0,11.0,-100.00,West,270,4.0,16.0,57,-99.99,,,-99.99,,2013-01-24 16:11:00,
2013-01-24 11:12:00,23.0,12.0,-100.00,West,275,6.0,13.0,61,-99.99,,,-99.99,,2013-01-24 16:12:00,
2013-01-24 11:23:00,23.0,12.0,-100.00,West,275,6.0,13.0,61,-99.99,,,-99.99,,2013-01-24 16:23:00,
2013-01-24 11:33:00,25.0,11.0,-100.00,West,270,4.0,16.0,57,-99.99,,,-99.99,,2013-01-24 16:33:00,
2013-01-24 11:42:00,25.0,11.0,-100.00,West,270,4.0,16.0,57,-99.99,,,-99.99,,2013-01-24 16:42:00,
2013-01-24 12:03:00,25.0,11.0,-100.00,West,270,4.0,16.0,57,-99.99,,,-99.99,,2013-01-24 17:03:00,
2013-01-24 16:53:00,26.0,0.0,-100.00,WSW,255,6.0,19.0,32,-99.99,,,-99.99,,2013-01-24 21:53:00,
2013-01-24 17:03:00,26.0,0.0,-100.00,WSW,255,6.0,19.0,32,-99.99,,,-99.99,,2013-01-24 22:03:00,
2013-01-24 17:12:00,25.0,0.0,-100.00,WSW,255,4.0,17.0,33,-99.99,,,-99.99,,2013-01-24 22:12:00,
2013-01-24 17:22:00,25.0,0.0,-100.00,West,260,6.0,12.0,33,-99.99,,,-99.99,,2013-01-24 22:22:00,
2013-01-24 17:33:00,25.0,0.0,-100.00,West,260,6.0,12.0,33,-99.99,,,-99.99,,2013-01-24 22:33:00,
2013-01-24 17:42:00,25.0,-1.0,-100.00,WSW,250,3.0,13.0,33,-99.99,,,-99.99,,2013-01-24 22:42:00,
2013-01-24 17:52:00,25.0,-1.0,-100.00,WSW,250,4.0,11.0,33,-99.99,,,-99.99,,2013-01-24 22:52:00,
2013-01-24 18:03:00,25.0,-1.0,-100.00,WSW,250,4.0,11.0,33,-99.99,,,-99.99,,2013-01-24 23:03:00,
2013-01-24 18:12:00,24.0,-1.0,-100.00,SW,220,3.0,11.0,34,-99.99,,,-99.99,,2013-01-24 23:12:00,
2013-01-24 18:22:00,24.0,-1.0,-100.00,SW,220,3.0,11.0,34,-99.99,,,-99.99,,2013-01-24 23:22:00,
2013-01-24 18:32:00,24.0,0.0,-100.00,SW,235,2.0,9.0,35,-99.99,,,-99.99,,2013-01-24 23:32:00,
2013-01-24 18:42:00,23.0,-1.0,-100.00,SW,230,3.0,8.0,35,-99.99,,,-99.99,,2013-01-24 23:42:00,
2013-01-24 18:52:00,23.0,-1.0,-100.00,SW,230,3.0,8.0,35,-99.99,,,-99.99,,2013-01-24 23:52:00,
2013-01-24 19:02:00,23.0,0.0,-100.00,SW,230,3.0,7.0,36,-99.99,,,-99.99,,2013-01-25 00:02:00,
2013-01-24 19:12:00,23.0,0.0,-100.00,SW,230,3.0,7.0,37,-99.99,,,-99.99,,2013-01-25 00:12:00,
2013-01-24 19:22:00,22.0,0.0,-100.00,West,275,2.0,8.0,38,-99.99,,,-99.99,,2013-01-25 00:22:00,
2013-01-24 19:32:00,22.0,0.0,-100.00,West,275,2.0,8.0,38,-99.99,,,-99.99,,2013-01-25 00:32:00,
2013-01-24 19:42:00,22.0,0.0,-100.00,WSW,245,4.0,12.0,38,-99.99,,,-99.99,,2013-01-25 00:42:00,
2013-01-24 19:52:00,22.0,0.0,-100.00,SSW,210,3.0,7.0,39,-99.99,,,-99.99,,2013-01-25 00:52:00,
2013-01-24 20:02:00,22.0,0.0,-100.00,SSW,210,3.0,7.0,39,-99.99,,,-99.99,,2013-01-25 01:02:00,
2013-01-24 20:12:00,22.0,0.0,-100.00,SW,235,4.0,10.0,39,-99.99,,,-99.99,,2013-01-25 01:12:00,
2013-01-24 20:22:00,22.0,1.0,-100.00,WSW,255,4.0,9.0,40,-99.99,,,-99.99,,2013-01-25 01:22:00,
2013-01-24 20:32:00,22.0,1.0,-100.00,WSW,255,4.0,9.0,40,-99.99,,,-99.99,,2013-01-25 01:32:00,
2013-01-24 20:42:00,21.0,0.0,-100.00,WSW,255,3.0,7.0,40,-99.99,,,-99.99,,2013-01-25 01:42:00,
2013-01-24 20:52:00,20.0,0.0,-100.00,WSW,245,2.0,7.0,41,-99.99,,,-99.99,,2013-01-25 01:52:00,
2013-01-24 21:02:00,20.0,0.0,-100.00,WSW,245,2.0,7.0,41,-99.99,,,-99.99,,2013-01-25 02:02:00,
2013-01-24 21:11:00,20.0,0.0,-100.00,WSW,250,2.0,6.0,41,-99.99,,,-99.99,,2013-01-25 02:11:00,
2013-01-24 21:22:00,19.0,0.0,-100.00,SW,235,2.0,6.0,42,-99.99,,,-99.99,,2013-01-25 02:22:00,
2013-01-24 21:32:00,19.0,0.0,-100.00,SW,235,2.0,6.0,42,-99.99,,,-99.99,,2013-01-25 02:32:00,
2013-01-24 21:42:00,18.0,-1.0,-100.00,South,170,1.0,4.0,43,-99.99,,,-99.99,,2013-01-25 02:42:00,
2013-01-24 21:52:00,18.0,0.0,-100.00,SW,220,2.0,5.0,44,-99.99,,,-99.99,,2013-01-25 02:52:00,
2013-01-24 22:02:00,18.0,0.0,-100.00,SW,220,2.0,5.0,44,-99.99,,,-99.99,,2013-01-25 03:02:00,
2013-01-24 22:12:00,17.0,0.0,-100.00,SSW,210,2.0,5.0,46,-99.99,,,-99.99,,2013-01-25 03:12:00,
2013-01-24 22:22:00,17.0,0.0,-100.00,SSE,155,2.0,4.0,47,-99.99,,,-99.99,,2013-01-25 03:22:00,
2013-01-24 22:33:00,17.0,0.0,-100.00,SSE,155,2.0,4.0,47,-99.99,,,-99.99,,2013-01-25 03:33:00,
2013-01-24 22:42:00,17.0,0.0,-100.00,SSW,195,2.0,4.0,47,-99.99,,,-99.99,,2013-01-25 03:42:00,
2013-01-24 22:52:00,16.0,0.0,-100.00,SSE,165,2.0,4.0,50,-99.99,,,-99.99,,2013-01-25 03:52:00,
2013-01-24 23:02:00,16.0,0.0,-100.00,SSE,165,2.0,4.0,50,-99.99,,,-99.99,,2013-01-25 04:02:00,
2013-01-24 23:12:00,16.0,0.0,-100.00,SSW,205,2.0,6.0,51,-99.99,,,-99.99,,2013-01-25 04:12:00,
2013-01-24 23:22:00,16.0,1.0,-100.00,South,170,1.0,6.0,51,-99.99,,,-99.99,,2013-01-25 04:22:00,
2013-01-24 23:32:00,16.0,1.0,-100.00,South,170,1.0,6.0,51,-99.99,,,-99.99,,2013-01-25 04:32:00,
2013-01-24 23:42:00,16.0,1.0,-100.00,SW,220,2.0,4.0,51,-99.99,,,-99.99,,2013-01-25 04:42:00,
2013-01-24 23:51:00,16.0,1.0,-100.00,SSW,200,2.0,6.0,51,-99.99,,,-99.99,,2013-01-25 04:51:00,